Météo par heure à Alisovo

Ce jour, 27 Octobre, Mardi

Heure Température Précipitation Vent Pression Humidité
00:00 +7°C° 0 mm 3 m/s 750 mmHg 84%
01:00 +7°C° 0 mm 3 m/s 750 mmHg 86%
02:00 +7°C° 0 mm 3 m/s 750 mmHg 90%
03:00 +7°C° 0 mm 3 m/s 750 mmHg 88%
04:00 +6°C° 0 mm 4 m/s 750 mmHg 86%
05:00 +6°C° 0 mm 4 m/s 750 mmHg 84%
06:00 +6°C° 0 mm 4 m/s 750 mmHg 82%
07:00 +6°C° 0 mm 5 m/s 750 mmHg 81%
08:00 +6°C° 0 mm 5 m/s 750 mmHg 79%
09:00 +7°C° 0 mm 5 m/s 750 mmHg 75%
10:00 +8°C° 0 mm 6 m/s 751 mmHg 72%
11:00 +9°C° 0 mm 6 m/s 751 mmHg 69%
12:00 +9°C° 0 mm 6 m/s 750 mmHg 68%
13:00 +9°C° 0 mm 6 m/s 750 mmHg 67%
14:00 +10°C° 0 mm 5 m/s 750 mmHg 66%
15:00 +9°C° 0 mm 5 m/s 750 mmHg 68%
16:00 +8°C° 0 mm 5 m/s 750 mmHg 71%
17:00 +8°C° 0 mm 4 m/s 750 mmHg 74%
18:00 +7°C° 0 mm 5 m/s 750 mmHg 75%
19:00 +7°C° 0 mm 5 m/s 750 mmHg 75%
20:00 +7°C° 0 mm 5 m/s 750 mmHg 76%
21:00 +6°C° 0 mm 5 m/s 750 mmHg 76%
22:00 +6°C° 0 mm 5 m/s 750 mmHg 77%
23:00 +6°C° 0 mm 5 m/s 750 mmHg 77%

Demain, 28 Octobre, Mercredi

Heure Température Précipitation Vent Pression Humidité
00:00 +5°C° 0 mm 5 m/s 750 mmHg 77%
01:00 +5°C° 0 mm 4 m/s 750 mmHg 78%
02:00 +5°C° 0 mm 4 m/s 750 mmHg 78%
03:00 +4°C° 0 mm 4 m/s 750 mmHg 79%
04:00 +4°C° 0 mm 4 m/s 750 mmHg 80%
05:00 +4°C° 0 mm 4 m/s 749 mmHg 81%
06:00 +4°C° 0 mm 4 m/s 750 mmHg 80%
07:00 +3°C° 0 mm 5 m/s 750 mmHg 79%
08:00 +3°C° 0 mm 5 m/s 750 mmHg 78%
09:00 +6°C° 0 mm 4 m/s 750 mmHg 74%
10:00 +7°C° 0 mm 4 m/s 750 mmHg 70%
11:00 +8°C° 0 mm 4 m/s 750 mmHg 67%
12:00 +8°C° 0 mm 4 m/s 749 mmHg 65%
13:00 +10°C° 0 mm 4 m/s 749 mmHg 64%
14:00 +11°C° 0 mm 4 m/s 749 mmHg 63%
15:00 +10°C° 0 mm 3 m/s 749 mmHg 66%
16:00 +9°C° 0 mm 3 m/s 749 mmHg 69%
17:00 +8°C° 0 mm 3 m/s 749 mmHg 73%
18:00 +7°C° 0 mm 3 m/s 749 mmHg 72%
19:00 +7°C° 0 mm 3 m/s 749 mmHg 71%
20:00 +7°C° 0 mm 3 m/s 750 mmHg 71%
21:00 +5°C° 0 mm 3 m/s 749 mmHg 72%
22:00 +5°C° 0 mm 3 m/s 749 mmHg 74%
23:00 +4°C° 0 mm 3 m/s 749 mmHg 75%

Après-demain, 29 Octobre, Jeudi

Heure Température Précipitation Vent Pression Humidité
00:00 +4°C° 0 mm 3 m/s 749 mmHg 75%
01:00 +4°C° 0 mm 3 m/s 749 mmHg 75%
02:00 +4°C° 0 mm 3 m/s 749 mmHg 75%
03:00 +3°C° 0 mm 3 m/s 749 mmHg 75%
04:00 +3°C° 0 mm 3 m/s 749 mmHg 75%
05:00 +3°C° 0 mm 3 m/s 748 mmHg 75%
06:00 +3°C° 0 mm 3 m/s 748 mmHg 73%
07:00 +3°C° 0 mm 3 m/s 748 mmHg 72%
08:00 +4°C° 0 mm 4 m/s 748 mmHg 70%
09:00 +5°C° 0 mm 4 m/s 748 mmHg 66%
10:00 +6°C° 0 mm 4 m/s 748 mmHg 62%
11:00 +7°C° 0 mm 4 m/s 748 mmHg 59%
12:00 +8°C° 0 mm 4 m/s 747 mmHg 58%
13:00 +8°C° 0 mm 4 m/s 747 mmHg 57%
14:00 +8°C° 0 mm 4 m/s 747 mmHg 56%
15:00 +8°C° 0 mm 4 m/s 746 mmHg 60%
16:00 +8°C° 0 mm 3 m/s 746 mmHg 64%
17:00 +7°C° 0 mm 3 m/s 746 mmHg 68%
18:00 +5°C° 0 mm 3 m/s 746 mmHg 70%
19:00 +5°C° 0 mm 3 m/s 745 mmHg 73%
20:00 +5°C° 0 mm 3 m/s 745 mmHg 75%
21:00 +6°C° 0 mm 2 m/s 745 mmHg 76%
22:00 +6°C° 0 mm 2 m/s 745 mmHg 77%
23:00 +6°C° 0 mm 2 m/s 744 mmHg 78%

30 Octobre, Vendredi

Heure Température Précipitation Vent Pression Humidité
00:00 +6°C° 0 mm 2 m/s 744 mmHg 79%
01:00 +5°C° 0 mm 2 m/s 744 mmHg 80%
02:00 +5°C° 0 mm 2 m/s 744 mmHg 81%
03:00 +5°C° 0 mm 2 m/s 743 mmHg 82%
04:00 +5°C° 0 mm 2 m/s 743 mmHg 83%
05:00 +5°C° 0 mm 2 m/s 743 mmHg 85%
06:00 +5°C° 0 mm 2 m/s 743 mmHg 85%
07:00 +5°C° 0 mm 2 m/s 743 mmHg 84%
08:00 +6°C° 0 mm 2 m/s 743 mmHg 84%
09:00 +7°C° 0 mm 2 m/s 743 mmHg 81%
10:00 +8°C° 0 mm 2 m/s 743 mmHg 78%
11:00 +9°C° 0 mm 2 m/s 743 mmHg 75%
12:00 +9°C° 0 mm 2 m/s 742 mmHg 74%
13:00 +9°C° 0 mm 2 m/s 742 mmHg 74%
14:00 +9°C° 0 mm 2 m/s 742 mmHg 74%
15:00 +9°C° 0.1 mm 2 m/s 742 mmHg 77%
16:00 +8°C° 0.1 mm 2 m/s 742 mmHg 80%
17:00 +8°C° 0.1 mm 2 m/s 742 mmHg 83%
18:00 +8°C° 0.5 mm 2 m/s 742 mmHg 86%
19:00 +7°C° 0.5 mm 2 m/s 742 mmHg 89%
20:00 +7°C° 0.5 mm 2 m/s 742 mmHg 92%
21:00 +7°C° 0.4 mm 2 m/s 742 mmHg 93%
22:00 +7°C° 0.4 mm 2 m/s 742 mmHg 94%
23:00 +7°C° 0.4 mm 2 m/s 741 mmHg 94%

31 Octobre, Samedi

Heure Température Précipitation Vent Pression Humidité
00:00 +7°C° 0.4 mm 2 m/s 741 mmHg 95%
01:00 +7°C° 0.4 mm 2 m/s 742 mmHg 95%
02:00 +7°C° 0.4 mm 2 m/s 742 mmHg 95%
03:00 +7°C° 0.3 mm 3 m/s 742 mmHg 95%
04:00 +7°C° 0.3 mm 3 m/s 742 mmHg 95%
05:00 +7°C° 0.3 mm 3 m/s 742 mmHg 95%
06:00 +7°C° 0.2 mm 3 m/s 742 mmHg 95%
07:00 +7°C° 0.2 mm 3 m/s 743 mmHg 94%
08:00 +7°C° 0.2 mm 3 m/s 743 mmHg 94%
09:00 +8°C° 0.1 mm 3 m/s 743 mmHg 93%
10:00 +8°C° 0.1 mm 3 m/s 744 mmHg 92%
11:00 +8°C° 0.1 mm 3 m/s 744 mmHg 91%
12:00 +8°C° 0.1 mm 3 m/s 744 mmHg 91%
13:00 +8°C° 0.1 mm 3 m/s 745 mmHg 91%
14:00 +7°C° 0.1 mm 4 m/s 745 mmHg 91%
15:00 +7°C° 0.1 mm 4 m/s 745 mmHg 91%
16:00 +7°C° 0.1 mm 4 m/s 746 mmHg 92%
17:00 +7°C° 0.1 mm 4 m/s 746 mmHg 92%
18:00 +7°C° 0.1 mm 4 m/s 746 mmHg 92%
19:00 +7°C° 0.1 mm 4 m/s 747 mmHg 92%
20:00 +7°C° 0.1 mm 4 m/s 747 mmHg 92%
21:00 +6°C° 0.1 mm 4 m/s 747 mmHg 92%
22:00 +6°C° 0.1 mm 4 m/s 748 mmHg 92%
23:00 +6°C° 0.1 mm 4 m/s 748 mmHg 92%

1 Novembre, Dimanche

Heure Température Précipitation Vent Pression Humidité
00:00 +6°C° 0.1 mm 4 m/s 748 mmHg 92%
01:00 +6°C° 0.1 mm 4 m/s 748 mmHg 92%
02:00 +6°C° 0.1 mm 5 m/s 748 mmHg 92%
03:00 +6°C° 0 mm 4 m/s 748 mmHg 92%
04:00 +6°C° 0 mm 4 m/s 748 mmHg 92%
05:00 +7°C° 0 mm 4 m/s 748 mmHg 92%
06:00 +7°C° 0 mm 4 m/s 749 mmHg 92%
07:00 +7°C° 0 mm 4 m/s 749 mmHg 92%
08:00 +7°C° 0 mm 4 m/s 749 mmHg 91%
09:00 +7°C° 0 mm 5 m/s 749 mmHg 90%
10:00 +8°C° 0 mm 5 m/s 749 mmHg 89%
11:00 +8°C° 0 mm 5 m/s 749 mmHg 88%
12:00 +9°C° 0 mm 5 m/s 749 mmHg 88%
13:00 +9°C° 0 mm 5 m/s 749 mmHg 88%
14:00 +9°C° 0 mm 5 m/s 749 mmHg 89%
15:00 +9°C° 0 mm 6 m/s 749 mmHg 90%
16:00 +9°C° 0 mm 6 m/s 749 mmHg 91%
17:00 +9°C° 0 mm 6 m/s 749 mmHg 92%
18:00 +9°C° 0 mm 6 m/s 749 mmHg 92%
19:00 +9°C° 0 mm 6 m/s 749 mmHg 92%
20:00 +9°C° 0 mm 6 m/s 750 mmHg 92%
21:00 +9°C° 0 mm 6 m/s 750 mmHg 92%
22:00 +8°C° 0 mm 6 m/s 750 mmHg 92%
23:00 +8°C° 0 mm 6 m/s 750 mmHg 92%
Voir plus

Nous avons besoin de votre consentement

Meteoprog et ses fournisseurs de services peuvent stocker et accéder à des données personnelles telles que des cookies, des identifiants d'appareils ou d'autres technologies similaires sur votre appareil et traiter ces données pour personnaliser le contenu et les publicités, ainsi que pour fournir des fonctionnalités de médias sociaux et analyser le trafic.

  • Stocker et/ou accéder à des informations sur votre appareil

    Des cookies, des identifiants d'appareils ou d'autres informations peuvent être stockés ou accessibles sur votre appareil aux fins indiquées ci-dessus.

  • Annonces et contenus personnalisés, mesure des annonces et des contenus, connaissance de l'audience et développement de produits

    Les annonces et le contenu peuvent être personnalisés en fonction d'un profil. D'autres données peuvent être ajoutées pour mieux personnaliser les annonces et le contenu. Les performances des publicités et du contenu peuvent être mesurées. Il est possible d'obtenir des informations sur le public qui a vu les publicités et le contenu. Ces données peuvent être utilisées pour développer ou améliorer l'expérience de l'utilisateur, les systèmes et les logiciels.

En cliquant sur "J'accepte", vous autorisez l'utilisation de cookies, des identifiants d'appareils, des balises web ou d'autres technologies similaires. Vos paramètres peuvent être modifiés dans le navigateur de votre appareil.

Dans certains cas, des intérêts légitimes peuvent être invoqués plutôt qu'un consentement. Vous pouvez en savoir plus à ce sujet dans notre Politique de confidentialité et de cookies.